Rouyn Airport, Quebec

3:20 AM ADT on June 27, 2017 (GMT -0300)
Rouyn Airport

Weather History for CYUY - January, 2014

Change the Weather History Date:

Wednesday, January 15, 2014

  Actual Average Record
Temperature  
Mean Temperature 4 °F -  
Max Temperature 8 °F - - ()
Min Temperature 1 °F - - ()
Degree Days  
Heating Degree Days 60    
Moisture  
Dew Point 0 °F    
Average Humidity 81    
Maximum Humidity 85    
Minimum Humidity 78    
Precipitation  
Precipitation 0.00 in - - ()
Sea Level Pressure  
Sea Level Pressure 29.83 in    
Wind  
Wind Speed 6 mph ()    
Max Wind Speed 12 mph    
Max Gust Speed -    
Visibility 4.9 miles    
Events Snow    
T = Trace of Precipitation, MM = Missing Value Source: Averaged Metar Reports

Daily Weather History Graph

Daily Weather History Graph

Search for Another Location

Airport or City:

Trip Planner

Search our weather history database for the weather conditions in past years. The results will help you decide how hot, cold, wet, or windy it might be!

Date:

Astronomy

Jan. 15, 2014 Rise Set
Actual Time 9:00 AM AST 5:48 PM AST
Civil Twilight 8:25 AM AST 6:24 PM AST
Nautical Twilight 7:46 AM AST 7:03 PM AST
Astronomical Twilight 7:09 AM AST 7:40 PM AST
Moon 5:49 PM AST (1/15) 8:11 AM AST (1/15)
Length of Visible Light 9h 58m
Length of Day
8h 48m
Full, 100% of the Moon is Illuminated
Jan 15
Full
Jan 16
Full
Jan 24
Last Quarter
Jan 30
New
Feb 6
First Quarter

Hourly Weather History & Observations

Time (AST) Temp. Windchill Dew Point Humidity Pressure Visibility Wind Dir Wind Speed Gust Speed Precip Events Conditions
12:00 AM 6.8 °F -2.0 °F 3.2 °F 85% 29.89 in 15.0 mi NNE 4.6 mph - N/A Snow Light Snow Showers
1:00 AM 6.8 °F -5.9 °F 1.4 °F 79% 29.88 in 15.0 mi North 8.1 mph - N/A Snow Light Snow Showers
2:00 AM 5.0 °F -4.1 °F 1.4 °F 85% 29.88 in 15.0 mi North 4.6 mph - N/A Snow Light Snow Showers
3:00 AM 5.0 °F -4.1 °F 1.4 °F 85% 29.89 in 6.0 mi NNE 4.6 mph - N/A Snow Light Snow Showers
3:52 AM 5.0 °F -8.1 °F 1.4 °F 85% 29.89 in 2.5 mi NE 8.1 mph - N/A Snow Light Snow
4:00 AM 5.0 °F -6.9 °F 1.4 °F 85% 29.90 in 2.5 mi NNE 6.9 mph - N/A Snow Light Snow
5:00 AM 5.0 °F -6.9 °F 1.4 °F 85% 29.90 in 3.0 mi North 6.9 mph - N/A Snow Light Snow
5:26 AM 5.0 °F -8.1 °F 1.4 °F 85% 29.89 in 2.0 mi NNE 8.1 mph - N/A Snow Light Snow
6:00 AM 3.2 °F -13.1 °F -0.4 °F 85% 29.88 in 3.0 mi NE 11.5 mph - N/A Snow Light Snow
7:00 AM 3.2 °F -11.3 °F -0.4 °F 85% 29.88 in 4.0 mi NE 9.2 mph - N/A Snow Light Snow
8:00 AM 3.2 °F -10.3 °F -0.4 °F 85% 29.86 in 4.0 mi NNE 8.1 mph - N/A Snow Light Snow
8:32 AM 3.2 °F -12.2 °F -2.2 °F 78% 29.86 in 2.5 mi NE 10.4 mph - N/A Snow Light Snow
9:00 AM 3.2 °F -11.3 °F -2.2 °F 78% 29.85 in 2.0 mi NE 9.2 mph - N/A Snow Light Snow
9:24 AM 3.2 °F -10.3 °F -2.2 °F 78% 29.85 in 1.2 mi NE 8.1 mph - N/A Snow Light Snow
10:00 AM 3.2 °F -13.1 °F -2.2 °F 78% 29.85 in 1.2 mi NE 11.5 mph - N/A Snow Light Snow
10:14 AM 3.2 °F -11.3 °F -2.2 °F 78% 29.85 in 0.8 mi NE 9.2 mph - N/A Snow Light Snow
11:00 AM 3.2 °F -13.1 °F -2.2 °F 78% 29.83 in 0.6 mi NNE 11.5 mph - N/A Snow Light Snow
11:07 AM 3.2 °F -13.1 °F -2.2 °F 78% 29.83 in 0.4 mi NE 11.5 mph - N/A Snow Snow
11:12 AM 3.2 °F -11.3 °F -2.2 °F 78% 29.82 in 0.6 mi NE 9.2 mph - N/A Snow Light Snow
12:00 PM 3.2 °F -11.3 °F -0.4 °F 85% 29.80 in 0.6 mi NNE 9.2 mph - N/A Snow Light Snow
12:51 PM 5.0 °F -9.1 °F -0.4 °F 78% 29.78 in 1.0 mi NE 9.2 mph - N/A Snow Light Snow
1:00 PM 5.0 °F -8.1 °F -0.4 °F 78% 29.78 in 1.2 mi NNE 8.1 mph - N/A Snow Light Snow
1:10 PM 5.0 °F -8.1 °F -0.4 °F 78% 29.77 in 1.5 mi NNE 8.1 mph - N/A Snow Light Snow
2:00 PM 6.8 °F -3.5 °F 1.4 °F 79% 29.76 in 1.5 mi North 5.8 mph - N/A Snow Light Snow
2:19 PM 6.8 °F -2.0 °F 1.4 °F 79% 29.75 in 3.0 mi NNE 4.6 mph - N/A Snow Light Snow
3:00 PM 8.6 °F 0.1 °F 3.2 °F 79% 29.75 in 15.0 mi NE 4.6 mph - N/A Snow Light Snow
4:00 PM 8.6 °F 0.1 °F 3.2 °F 79% 29.75 in 6.0 mi NNE 4.6 mph - N/A Snow Light Snow
4:28 PM 8.6 °F 0.1 °F 3.2 °F 79% 29.76 in 2.5 mi NW 4.6 mph - N/A Snow Light Snow
5:00 PM 8.6 °F 2.0 °F 3.2 °F 79% 29.77 in 4.0 mi NNW 3.5 mph - N/A Snow Light Snow
5:14 PM 8.6 °F 0.1 °F 3.2 °F 79% 29.79 in 1.5 mi NW 4.6 mph - N/A Snow Light Snow
6:00 PM 6.8 °F - 3.2 °F 85% 29.79 in 1.5 mi NW 2.3 mph - N/A Snow Light Snow
6:46 PM 6.8 °F -0.1 °F 1.4 °F 79% 29.81 in 6.0 mi NW 3.5 mph - N/A Snow Light Snow
7:00 PM 6.8 °F -3.5 °F 1.4 °F 79% 29.82 in 8.0 mi WNW 5.8 mph - N/A Snow Light Snow
8:00 PM 5.0 °F -4.1 °F -0.4 °F 78% 29.84 in 8.0 mi NW 4.6 mph - N/A Snow Light Snow
9:00 PM 3.2 °F -4.2 °F -0.4 °F 85% 29.84 in 12.0 mi SW 3.5 mph - N/A Snow Light Snow
10:00 PM 1.4 °F -9.9 °F -2.2 °F 85% 29.86 in 15.0 mi WSW 5.8 mph - N/A Snow Light Snow
11:00 PM 3.2 °F -10.3 °F -0.4 °F 85% 29.88 in 12.0 mi WSW 8.1 mph - N/A Snow Light Snow